Location: Ernsee
(50.8780°N, 12.0389°E)
Time: 19:08:07
(UTC+00:00)

Cosmos 1758 - Pass Details

Date: 20 January 2020
Orbit: 540 x 562 km, 82.5° (Epoch: 21 February)

Event Time Altitude Azimuth Distance (km) Brightness Sun altitude
Exits shadow 05:11:24 26° 328° (NNW) 1,102 4.5 -17.3°
Drops below altitude 10° 05:13:40 10° 354° (N) 1,823 5.8 -16.9°
Sets 05:15:59 0° 4° (N) 2,719 6.8 -16.6°
